User: anonymous
Location: Oshawa
(43.9000°N, 78.8670°W)
Time: 03:32:16
(UTC-04:00)
Language:

SPOT 5 - Orbit

View from above orbital plane
View from above orbital plane
View from above satellite
View from above satellite

Ground track
Ground track

The orbit data is extracted from the following two-line orbital elements,

1 27421U 02021A   14243.81805654  .00000119  00000-0  75652-4 0  8799
2 27421 098.5547 304.5246 0001167 091.8708 020.5283 14.20110069639055
Epoch (UTC): 31 August 2014 19:38:00
Eccentricity: 0.0001167
inclination: 98.5547°
perigee height: 824 km
apogee height: 826 km
right ascension of ascending node: 304.5246°
argument of perigee: 91.8708°
revolutions per day: 14.20110069
mean anomaly at epoch: 20.5283°
orbit number at epoch: 63905

The dashed part of the orbit path shows where the satellite is in the earth's shadow,  

DLR